Location: McFarlands Corners
(41.4117°N, 81.3382°W)
Time: 01:19:56
(UTC+00:00)

Tiros 1 - Pass Details

Date: 18 February 2026
Orbit: 618 x 649 km, 48.4° (Epoch: 10 March)

Event Time Altitude Azimuth Distance (km) Brightness Sun altitude
Rises 18:16:44 0° 297° (WNW) 2,896 10.4 36.5°
Reaches altitude 10° 18:19:07 10° 303° (WNW) 1,985 9.6 36.4°
Maximum altitude 18:23:34 52° 20° (NNE) 769 7.6 36.2°
Drops below altitude 10° 18:28:00 10° 97° (E) 1,976 9.7 36.0°
Sets 18:30:22 0° 103° (ESE) 2,881 10.5 35.9°
